Bowling Green, KY

7:25 PM CDT on August 21, 2017 (GMT -0500)
Bowling Green-Warren County Regional

Weather History for KBWG - January, 2015

Change the Weather History Date:

Sunday, January 25, 2015

  Actual Average Record
Temperature  
Mean Temperature 42 °F 36 °F  
Max Temperature 49 °F 46 °F 76 °F (1950)
Min Temperature 34 °F 26 °F -14 °F (1963)
Degree Days  
Heating Degree Days 23 29  
Month to date heating degree days 764 738  
Since 1 July heating degree days 2377 2322  
Cooling Degree Days 0 0  
Month to date cooling degree days 0 0  
Year to date cooling degree days 0 0  
Moisture  
Dew Point 36 °F    
Average Humidity 74    
Maximum Humidity 92    
Minimum Humidity 56    
Precipitation  
Precipitation 0.17 in 0.11 in 2.40 in (1902)
Month to date precipitation 1.77 2.86  
Year to date precipitation 1.77 2.86  
Snow  
Snow 0.00 in 0.10 in 4.00 in (1978)
Month to date snowfall 2.3 2.5  
Since 1 July snowfall 2.6 3.7  
Snow Depth 0.00 in    
Sea Level Pressure  
Sea Level Pressure 29.71 in    
Wind  
Wind Speed 8 mph (SW)    
Max Wind Speed 18 mph    
Max Gust Speed 24 mph    
Visibility 9 miles    
Events Rain    
T = Trace of Precipitation, MM = Missing Value Source: NWS Daily Summary

Daily Weather History Graph

Daily Weather History Graph

Search for Another Location

Airport or City:

Trip Planner

Search our weather history database for the weather conditions in past years. The results will help you decide how hot, cold, wet, or windy it might be!

Date:

Astronomy

Jan. 25, 2015 Rise Set
Actual Time 6:53 AM CST 5:03 PM CST
Civil Twilight 6:25 AM CST 5:30 PM CST
Nautical Twilight 5:54 AM CST 6:02 PM CST
Astronomical Twilight 5:23 AM CST 6:33 PM CST
Moon 10:08 AM CST (1/25) 11:17 PM CST (1/25)
Length of Visible Light 11h 05m
Length of Day
10h 09m
Waxing Crescent, 34% of the Moon is Illuminated
Jan 25
Waxing Crescent
Jan 26
First Quarter
Feb 3
Full
Feb 11
Last Quarter
Feb 18
New

Hourly Weather History & Observations

Time (CST) Temp. Windchill Dew Point Humidity Pressure Visibility Wind Dir Wind Speed Gust Speed Precip Events Conditions
12:53 AM 36.0 °F 30.3 °F 28.0 °F 73% 29.85 in 10.0 mi South 6.9 mph - N/A   Clear
1:53 AM 37.0 °F 30.4 °F 28.9 °F 73% 29.84 in 10.0 mi South 9.2 mph - N/A   Clear
2:53 AM 37.9 °F 32.7 °F 30.0 °F 73% 29.83 in 10.0 mi South 6.9 mph - N/A   Clear
3:53 AM 37.0 °F 31.6 °F 30.0 °F 76% 29.81 in 10.0 mi South 6.9 mph - N/A   Clear
4:53 AM 37.9 °F 32.7 °F 30.0 °F 73% 29.78 in 10.0 mi South 6.9 mph - N/A   Clear
5:53 AM 36.0 °F 31.1 °F 30.0 °F 79% 29.78 in 10.0 mi South 5.8 mph - N/A   Clear
6:53 AM 37.9 °F 30.5 °F 30.0 °F 73% 29.77 in 10.0 mi South 11.5 mph - N/A   Clear
7:53 AM 39.0 °F 32.3 °F 30.9 °F 73% 29.77 in 10.0 mi SSW 10.4 mph - N/A   Clear
8:53 AM 42.1 °F 35.7 °F 33.1 °F 70% 29.75 in 10.0 mi South 11.5 mph - N/A   Clear
9:53 AM 46.0 °F 40.2 °F 34.0 °F 63% 29.73 in 10.0 mi SSW 12.7 mph 21.9 mph N/A   Clear
10:53 AM 48.0 °F - 34.0 °F 58% 29.70 in 10.0 mi South 12.7 mph - N/A   Scattered Clouds
11:53 AM 48.9 °F - 34.0 °F 56% 29.67 in 10.0 mi South 11.5 mph - N/A   Overcast
12:53 PM 48.9 °F - 34.0 °F 56% 29.64 in 10.0 mi South 11.5 mph - N/A   Overcast
1:53 PM 48.0 °F - 37.0 °F 66% 29.62 in 10.0 mi South 6.9 mph - 0.00 in Rain Light Rain
2:53 PM 48.9 °F - 39.0 °F 69% 29.61 in 10.0 mi SSW 8.1 mph - 0.00 in Rain Light Rain
3:53 PM 46.9 °F - 41.0 °F 80% 29.64 in 10.0 mi SW 9.2 mph - 0.01 in Rain Light Rain
4:53 PM 46.0 °F 40.6 °F 41.0 °F 83% 29.65 in 7.0 mi WSW 11.5 mph - 0.00 in Rain Light Rain
4:59 PM 46.0 °F 41.0 °F 41.0 °F 83% 29.65 in 6.0 mi WSW 10.4 mph - 0.00 in Rain Light Rain
5:25 PM 45.0 °F 39.7 °F 41.0 °F 86% 29.66 in 10.0 mi SW 10.4 mph - 0.01 in Rain Light Rain
5:49 PM 44.6 °F 38.8 °F 41.0 °F 87% 29.66 in 10.0 mi WSW 11.5 mph - 0.01 in Rain Light Rain
5:53 PM 45.0 °F 40.1 °F 41.0 °F 86% 29.67 in 9.0 mi West 9.2 mph - 0.02 in Rain Light Rain
6:00 PM 44.1 °F 37.7 °F 39.0 °F 82% 29.67 in 10.0 mi West 12.7 mph 19.6 mph 0.00 in Rain Light Rain
6:53 PM 39.9 °F 32.1 °F 36.0 °F 86% 29.70 in 10.0 mi West 13.8 mph 20.7 mph 0.02 in Rain Light Rain
7:04 PM 39.0 °F 32.8 °F 35.1 °F 86% 29.69 in 10.0 mi WSW 9.2 mph 23.0 mph 0.01 in Rain Light Rain
7:16 PM 39.0 °F 34.0 °F 35.1 °F 86% 29.69 in 10.0 mi WSW 6.9 mph - 0.01 in Rain Light Rain
7:53 PM 39.9 °F 37.8 °F 37.0 °F 89% 29.70 in 7.0 mi WNW 3.5 mph - 0.03 in Rain Light Rain
8:17 PM 39.9 °F 36.7 °F 37.0 °F 89% 29.69 in 7.0 mi SW 4.6 mph - 0.01 in Rain Light Rain
8:53 PM 39.9 °F 36.7 °F 37.0 °F 89% 29.70 in 7.0 mi SW 4.6 mph - 0.03 in Rain Light Rain
8:58 PM 39.9 °F 36.7 °F 37.0 °F 89% 29.69 in 7.0 mi West 4.6 mph - 0.00 in Rain Light Rain
9:05 PM 39.9 °F 37.8 °F 37.0 °F 89% 29.69 in 7.0 mi NNW 3.5 mph - 0.01 in Rain Light Rain
9:13 PM 39.9 °F 37.8 °F 37.9 °F 93% 29.69 in 7.0 mi NW 3.5 mph - 0.01 in Rain Light Rain
9:53 PM 39.9 °F 36.7 °F 37.0 °F 89% 29.71 in 8.0 mi WNW 4.6 mph - 0.03 in Rain Light Rain
10:53 PM 39.9 °F - 37.9 °F 93% 29.72 in 6.0 mi Calm Calm - 0.03 in Rain Light Rain
11:53 PM 41.0 °F 36.4 °F 37.9 °F 89% 29.74 in 6.0 mi NW 6.9 mph - 0.00 in   Overcast